Time,TemperatureF,DewpointF,PressureIn,WindDirection,WindDirectionDegrees,WindSpeedMPH,WindSpeedGustMPH,Humidity,HourlyPrecipIn,Conditions,Clouds,dailyrainin,SoftwareType,DateUTC
2013-04-14 00:00:00,26.0,23.0,-100.00,South,189,38.0,72.0,86,-99.99,,,-99.99,,2013-04-14 06:00:00,
2013-04-14 00:42:00,26.0,23.0,-100.00,South,189,38.0,72.0,86,-99.99,,,-99.99,,2013-04-14 06:42:00,
2013-04-14 00:52:00,26.0,23.0,-100.00,South,189,38.0,72.0,86,-99.99,,,-99.99,,2013-04-14 06:52:00,
2013-04-14 01:00:00,24.0,23.0,-100.00,South,183,43.0,72.0,98,-99.99,,,-99.99,,2013-04-14 07:00:00,
2013-04-14 01:42:00,24.0,23.0,-100.00,South,183,43.0,72.0,98,-99.99,,,-99.99,,2013-04-14 07:42:00,
2013-04-14 01:52:00,24.0,23.0,-100.00,South,183,43.0,72.0,98,-99.99,,,-99.99,,2013-04-14 07:52:00,
2013-04-14 02:00:00,23.0,23.0,-100.00,South,181,29.0,46.0,98,-99.99,,,-99.99,,2013-04-14 08:00:00,
2013-04-14 02:43:00,23.0,23.0,-100.00,South,181,29.0,46.0,98,-99.99,,,-99.99,,2013-04-14 08:43:00,
2013-04-14 02:52:00,23.0,23.0,-100.00,South,181,29.0,46.0,98,-99.99,,,-99.99,,2013-04-14 08:52:00,
2013-04-14 03:00:00,24.0,24.0,-100.00,South,181,25.0,58.0,98,-99.99,,,-99.99,,2013-04-14 09:00:00,
2013-04-14 03:43:00,24.0,24.0,-100.00,South,181,25.0,58.0,98,-99.99,,,-99.99,,2013-04-14 09:43:00,
2013-04-14 03:53:00,24.0,24.0,-100.00,South,181,25.0,58.0,98,-99.99,,,-99.99,,2013-04-14 09:53:00,
2013-04-14 04:00:00,24.0,24.0,-100.00,SSW,192,22.0,49.0,98,-99.99,,,-99.99,,2013-04-14 10:00:00,
2013-04-14 04:43:00,24.0,24.0,-100.00,SSW,192,22.0,49.0,98,-99.99,,,-99.99,,2013-04-14 10:43:00,
2013-04-14 04:52:00,24.0,24.0,-100.00,SSW,192,22.0,49.0,98,-99.99,,,-99.99,,2013-04-14 10:52:00,
2013-04-14 05:00:00,24.0,23.0,-100.00,WSW,248,13.0,33.0,98,-99.99,,,-99.99,,2013-04-14 11:00:00,
2013-04-14 05:42:00,24.0,23.0,-100.00,WSW,248,13.0,33.0,98,-99.99,,,-99.99,,2013-04-14 11:42:00,
2013-04-14 05:53:00,24.0,23.0,-100.00,WSW,248,13.0,33.0,98,-99.99,,,-99.99,,2013-04-14 11:53:00,
2013-04-14 06:00:00,21.0,21.0,-100.00,NW,325,24.0,46.0,97,-99.99,,,-99.99,,2013-04-14 12:00:00,
2013-04-14 06:42:00,21.0,21.0,-100.00,NW,325,24.0,46.0,97,-99.99,,,-99.99,,2013-04-14 12:42:00,
2013-04-14 06:52:00,21.0,21.0,-100.00,NW,325,24.0,46.0,97,-99.99,,,-99.99,,2013-04-14 12:52:00,
2013-04-14 07:00:00,18.0,17.0,-100.00,NNW,336,39.0,56.0,96,-99.99,,,-99.99,,2013-04-14 13:00:00,
2013-04-14 07:43:00,18.0,17.0,-100.00,NNW,336,39.0,56.0,96,-99.99,,,-99.99,,2013-04-14 13:43:00,
2013-04-14 07:52:00,18.0,17.0,-100.00,NNW,336,39.0,56.0,96,-99.99,,,-99.99,,2013-04-14 13:52:00,
2013-04-14 08:00:00,15.0,13.0,-100.00,NNW,336,33.0,48.0,95,-99.99,,,-99.99,,2013-04-14 14:00:00,
2013-04-14 08:42:00,15.0,13.0,-100.00,NNW,336,33.0,48.0,95,-99.99,,,-99.99,,2013-04-14 14:42:00,
2013-04-14 08:53:00,15.0,13.0,-100.00,NNW,336,33.0,48.0,95,-99.99,,,-99.99,,2013-04-14 14:53:00,
2013-04-14 09:00:00,14.0,13.0,-100.00,NNW,333,17.0,30.0,94,-99.99,,,-99.99,,2013-04-14 15:00:00,
2013-04-14 09:43:00,14.0,13.0,-100.00,NNW,333,17.0,30.0,94,-99.99,,,-99.99,,2013-04-14 15:43:00,
2013-04-14 09:53:00,14.0,13.0,-100.00,NNW,333,17.0,30.0,94,-99.99,,,-99.99,,2013-04-14 15:53:00,
2013-04-14 10:00:00,14.0,13.0,-100.00,NNW,336,14.0,28.0,94,-99.99,,,-99.99,,2013-04-14 16:00:00,
2013-04-14 10:43:00,14.0,13.0,-100.00,NNW,336,14.0,28.0,94,-99.99,,,-99.99,,2013-04-14 16:43:00,
2013-04-14 10:53:00,14.0,13.0,-100.00,NNW,336,14.0,28.0,94,-99.99,,,-99.99,,2013-04-14 16:53:00,
2013-04-14 11:00:00,17.0,16.0,-100.00,NW,317,8.0,21.0,94,-99.99,,,-99.99,,2013-04-14 17:00:00,
2013-04-14 11:42:00,17.0,16.0,-100.00,NW,317,8.0,21.0,94,-99.99,,,-99.99,,2013-04-14 17:42:00,
2013-04-14 11:53:00,17.0,16.0,-100.00,NW,317,8.0,21.0,94,-99.99,,,-99.99,,2013-04-14 17:53:00,
2013-04-14 12:00:00,16.0,15.0,-100.00,South,185,23.0,51.0,93,-99.99,,,-99.99,,2013-04-14 18:00:00,
2013-04-14 12:43:00,16.0,15.0,-100.00,South,185,23.0,51.0,93,-99.99,,,-99.99,,2013-04-14 18:43:00,
2013-04-14 12:53:00,16.0,15.0,-100.00,South,185,23.0,51.0,93,-99.99,,,-99.99,,2013-04-14 18:53:00,
2013-04-14 13:00:00,17.0,16.0,-100.00,South,187,21.0,50.0,93,-99.99,,,-99.99,,2013-04-14 19:00:00,
2013-04-14 13:43:00,17.0,16.0,-100.00,South,187,21.0,50.0,93,-99.99,,,-99.99,,2013-04-14 19:43:00,
2013-04-14 13:52:00,17.0,16.0,-100.00,South,187,21.0,50.0,93,-99.99,,,-99.99,,2013-04-14 19:52:00,
2013-04-14 14:00:00,19.0,18.0,-100.00,South,189,19.0,37.0,93,-99.99,,,-99.99,,2013-04-14 20:00:00,
2013-04-14 14:43:00,19.0,18.0,-100.00,South,189,19.0,37.0,93,-99.99,,,-99.99,,2013-04-14 20:43:00,
2013-04-14 14:52:00,19.0,18.0,-100.00,South,189,19.0,37.0,93,-99.99,,,-99.99,,2013-04-14 20:52:00,
2013-04-14 15:00:00,20.0,19.0,-100.00,SSW,193,18.0,42.0,94,-99.99,,,-99.99,,2013-04-14 21:00:00,
2013-04-14 15:43:00,20.0,19.0,-100.00,SSW,193,18.0,42.0,94,-99.99,,,-99.99,,2013-04-14 21:43:00,
2013-04-14 15:53:00,20.0,19.0,-100.00,SSW,193,18.0,42.0,94,-99.99,,,-99.99,,2013-04-14 21:53:00,
2013-04-14 16:00:00,22.0,18.0,-100.00,SSW,205,17.0,38.0,83,-99.99,,,-99.99,,2013-04-14 22:00:00,
2013-04-14 16:44:00,22.0,18.0,-100.00,SSW,205,17.0,38.0,83,-99.99,,,-99.99,,2013-04-14 22:44:00,
2013-04-14 16:52:00,22.0,18.0,-100.00,SSW,205,17.0,38.0,83,-99.99,,,-99.99,,2013-04-14 22:52:00,
2013-04-14 17:00:00,24.0,15.0,-100.00,SSW,202,14.0,30.0,66,-99.99,,,-99.99,,2013-04-14 23:00:00,
2013-04-14 17:43:00,24.0,15.0,-100.00,SSW,202,14.0,30.0,66,-99.99,,,-99.99,,2013-04-14 23:43:00,
2013-04-14 17:53:00,24.0,15.0,-100.00,SSW,202,14.0,30.0,66,-99.99,,,-99.99,,2013-04-14 23:53:00,
2013-04-14 18:00:00,25.0,15.0,-100.00,SSW,203,18.0,38.0,64,-99.99,,,-99.99,,2013-04-15 00:00:00,
2013-04-14 18:42:00,25.0,15.0,-100.00,SSW,203,18.0,38.0,64,-99.99,,,-99.99,,2013-04-15 00:42:00,
2013-04-14 18:52:00,25.0,15.0,-100.00,SSW,203,18.0,38.0,64,-99.99,,,-99.99,,2013-04-15 00:52:00,
2013-04-14 19:00:00,26.0,16.0,-100.00,South,189,26.0,40.0,65,-99.99,,,-99.99,,2013-04-15 01:00:00,
2013-04-14 19:42:00,26.0,16.0,-100.00,South,189,26.0,40.0,65,-99.99,,,-99.99,,2013-04-15 01:42:00,
2013-04-14 19:52:00,26.0,16.0,-100.00,South,189,26.0,40.0,65,-99.99,,,-99.99,,2013-04-15 01:52:00,
2013-04-14 20:00:00,26.0,16.0,-100.00,South,183,29.0,51.0,66,-99.99,,,-99.99,,2013-04-15 02:00:00,
2013-04-14 20:42:00,26.0,16.0,-100.00,South,183,29.0,51.0,66,-99.99,,,-99.99,,2013-04-15 02:42:00,
2013-04-14 20:52:00,26.0,16.0,-100.00,South,183,29.0,51.0,66,-99.99,,,-99.99,,2013-04-15 02:52:00,
2013-04-14 21:00:00,27.0,16.0,-100.00,South,183,39.0,59.0,62,-99.99,,,-99.99,,2013-04-15 03:00:00,
2013-04-14 21:43:00,27.0,16.0,-100.00,South,183,39.0,59.0,62,-99.99,,,-99.99,,2013-04-15 03:43:00,
2013-04-14 21:54:00,27.0,16.0,-100.00,South,183,39.0,59.0,62,-99.99,,,-99.99,,2013-04-15 03:54:00,
2013-04-14 22:00:00,28.0,15.0,-100.00,South,183,38.0,60.0,58,-99.99,,,-99.99,,2013-04-15 04:00:00,
2013-04-14 22:43:00,28.0,15.0,-100.00,South,183,38.0,60.0,58,-99.99,,,-99.99,,2013-04-15 04:43:00,
2013-04-14 22:52:00,28.0,15.0,-100.00,South,183,38.0,60.0,58,-99.99,,,-99.99,,2013-04-15 04:52:00,
2013-04-14 23:00:00,29.0,16.0,-100.00,South,183,34.0,52.0,56,-99.99,,,-99.99,,2013-04-15 05:00:00,
2013-04-14 23:43:00,29.0,16.0,-100.00,South,183,34.0,52.0,56,-99.99,,,-99.99,,2013-04-15 05:43:00,
2013-04-14 23:52:00,29.0,16.0,-100.00,South,183,34.0,52.0,56,-99.99,,,-99.99,,2013-04-15 05:52:00,